[[{"header":{"parameterUnit":"m.s-1","parameterCategory":1,"la1":30.2992,"la2":30.254,"lo1":-89.0895,"lo2":-89.0443,"dy":0.0025,"dx":0.0025,"nx":19,"ny":19,"refTime":"2026-04-12T09:00:00:Z","depth":0,"parameterNumber":2,"parameterNumberName":"U-component_of_WINDS"},"data":[0,0,0,-3.2425,-3.2427,-3.2535,-3.2535,-3.2667,-3.2668,0,0,0,0,0,0,0,0,0,0,0,-3.2392,-3.2393,-3.2425,-3.2428,-3.2535,-3.2535,-3.2667,-3.2668,0,0,0,0,0,0,0,0,0,0,0,-3.2392,-3.2393,-3.2394,-3.2428,-3.2534,-3.2535,-3.2666,-3.2587,0,0,0,0,0,0,0,0,0,0,-3.2484,-3.2452,-3.2392,-3.2394,-3.2429,-3.2534,-3.2535,-3.2583,-3.2592,-3.2617,0,-3.2639,0,-3.2656,-3.2677,-3.2677,0,0,0,-3.2428,-3.2445,-3.2475,-3.2394,-3.243,-3.2534,-3.2487,-3.2588,-3.2598,-3.2628,-3.2641,-3.2646,-3.2658,-3.2677,-3.2678,-3.282,-3.2821,0,0,-3.2422,-3.241,-3.2468,-3.2481,-3.2466,-3.2483,-3.249,-3.2594,-3.2607,-3.2642,-3.2649,-3.266,-3.2678,-3.2679,-3.2819,-3.282,0,0,0,-3.2405,-3.2406,-3.2434,-3.2476,-3.2496,-3.2486,-3.2494,-3.2603,-3.2613,-3.2651,-3.2662,-3.2679,-3.2681,-3.2819,-3.282,-3.2838,0,0,0,-3.2401,-3.2396,-3.2431,-3.2425,-3.2494,-3.2551,-3.25,-3.2606,-3.2618,-3.2661,-3.2679,-3.2682,-3.2818,-3.2819,-3.2836,-3.2848,0,0,0,-3.2385,-3.2394,-3.2409,-3.2424,-3.247,-3.2549,-3.2566,-3.2608,-3.2624,-3.2677,-3.2682,-3.2818,-3.2819,-3.2834,-3.2845,-3.2881,0,0,0,-3.2364,-3.2424,-3.2409,-3.248,-3.2469,-3.2561,-3.2565,-3.2634,-3.2682,-3.268,-3.2818,-3.282,-3.2834,-3.2844,-3.2879,-3.2908,-3.2919,0,0,-3.2433,-3.2432,-3.2474,-3.2464,-3.2556,-3.2545,-3.264,-3.2694,-3.271,-3.2782,-3.2786,-3.2837,-3.2845,-3.288,-3.2988,-3.2997,0,0,0,-3.2492,-3.2522,-3.2549,-3.2594,-3.2638,-3.2676,-3.2718,-3.2738,-3.28,-3.2745,-3.286,-3.2866,-3.2887,-3.2901,-3.2908,-3.2926,-3.2826,-3.2826,-3.2826,-3.2569,-3.2587,-3.2658,-3.2688,-3.2732,-3.2775,-3.2811,-3.2845,-3.285,-3.2877,-3.2898,-3.2961,-3.2977,-3.2983,-3.3002,-3.2916,-3.2916,-3.2916,-3.2916,-3.267,-3.2714,-3.272,-3.279,-3.2808,-3.2867,-3.291,-3.2911,-3.2968,-3.2947,-3.2967,-3.2941,-3.2992,-3.3009,-3.2917,-3.2917,-3.2917,-3.2917,-3.2917,-3.2721,-3.2746,-3.277,-3.2836,-3.2885,-3.2913,-3.2967,-3.2982,-3.2996,-3.3015,-3.3037,-3.3037,-3.3037,-3.3025,-3.3025,-3.3025,-3.3026,-3.3026,-3.3026,-3.2765,-3.2792,-3.2836,-3.2887,-3.2917,-3.2958,-3.3001,-3.3031,-3.3067,-3.3073,-3.3073,-3.3074,-3.2995,-3.2973,-3.3029,-3.3029,-3.3028,-3.3028,-3.3028,-3.2858,-3.2839,-3.2907,-3.2937,-3.2997,-3.3044,-3.3062,-3.3121,-3.3147,-3.3173,-3.317,-3.311,-3.3109,-3.3103,-3.3086,-3.3167,-3.3167,-3.3167,-3.3168,-3.29,-3.2902,-3.2974,-3.3021,-3.3069,-3.3092,-3.3166,-3.3199,-3.323,-3.3248,-3.3238,-3.3216,-3.321,-3.3213,-3.3205,-3.3189,-3.3295,-3.3295,-3.3295,-3.2957,-3.2964,-3.3025,-3.3057,-3.3105,-3.3145,-3.3215,-3.3267,-3.3299,-3.3301,-3.3261,-3.3255,-3.3221,-3.3209,-3.3208,-3.3195,-3.3166,0,0]},{"header":{"parameterUnit":"m.s-1","parameterCategory":1,"la1":30.2992,"la2":30.254,"lo1":-89.0895,"lo2":-89.0443,"dy":0.0025,"dx":0.0025,"nx":19,"ny":19,"refTime":"2026-04-12T09:00:00:Z","depth":0,"parameterNumber":3,"parameterNumberName":"V-component_of_WINDS"},"data":[0,0,0,2.7452,2.7455,2.7598,2.7598,2.7782,2.7784,0,0,0,0,0,0,0,0,0,0,0,2.7409,2.741,2.7451,2.7455,2.7598,2.7598,2.7782,2.7784,0,0,0,0,0,0,0,0,0,0,0,2.7408,2.7409,2.7411,2.7456,2.7598,2.7598,2.7781,2.7674,0,0,0,0,0,0,0,0,0,0,2.7535,2.7494,2.7409,2.7411,2.7456,2.7597,2.7598,2.7668,2.768,2.7717,0,2.7749,0,2.7769,2.7796,2.7797,0,0,0,2.7456,2.7484,2.7523,2.7411,2.7458,2.7597,2.7534,2.7675,2.7689,2.7733,2.7751,2.7758,2.7772,2.7797,2.7798,2.8005,2.8006,0,0,2.7448,2.7434,2.7514,2.7531,2.7508,2.7529,2.7538,2.7683,2.7703,2.7752,2.7762,2.7775,2.7798,2.78,2.8005,2.8006,0,0,0,2.7425,2.7429,2.7464,2.7524,2.7549,2.7533,2.7544,2.7696,2.7709,2.7764,2.7777,2.7799,2.7802,2.8004,2.8005,2.8037,0,0,0,2.742,2.7415,2.7461,2.7453,2.7547,2.7624,2.7553,2.7699,2.7716,2.7776,2.7799,2.7803,2.8003,2.8004,2.8034,2.8056,0,0,0,2.74,2.7412,2.7433,2.7452,2.7513,2.7622,2.7643,2.7703,2.7724,2.7797,2.7804,2.8002,2.8004,2.8032,2.8051,2.8108,0,0,0,2.7374,2.7459,2.7433,2.7533,2.7512,2.764,2.7643,2.7739,2.7806,2.78,2.8003,2.8005,2.8031,2.8049,2.8105,2.8154,2.8172,0,0,2.7474,2.747,2.7531,2.7511,2.7641,2.7619,2.7755,2.7829,2.785,2.7953,2.7958,2.8035,2.8051,2.8107,2.8278,2.8293,0,0,0,2.7558,2.7601,2.7638,2.77,2.7759,2.7812,2.7867,2.7895,2.7983,2.7899,2.807,2.808,2.8114,2.8138,2.8151,2.8182,2.8015,2.8014,2.8014,2.768,2.77,2.7802,2.784,2.7901,2.7957,2.8009,2.8057,2.806,2.81,2.8132,2.8232,2.826,2.827,2.8302,2.8157,2.8158,2.8158,2.8158,2.783,2.7895,2.7897,2.7997,2.8019,2.8104,2.8162,2.8161,2.8245,2.821,2.8241,2.8203,2.8285,2.8314,2.816,2.816,2.816,2.8159,2.8159,2.7914,2.7949,2.798,2.8073,2.8143,2.8179,2.8259,2.8276,2.8293,2.8323,2.8359,2.8359,2.8363,2.8338,2.8339,2.8339,2.834,2.834,2.834,2.799,2.8024,2.8089,2.8158,2.8201,2.826,2.8317,2.8361,2.8414,2.842,2.842,2.8422,2.8288,2.8256,2.8346,2.8345,2.8344,2.8343,2.8343,2.8138,2.8107,2.8207,2.825,2.8334,2.8403,2.8423,2.851,2.8548,2.8588,2.8582,2.848,2.8478,2.8469,2.8442,2.8575,2.8575,2.8575,2.8575,2.8212,2.8212,2.8318,2.8386,2.8454,2.8482,2.8597,2.8643,2.8687,2.8713,2.8695,2.8661,2.865,2.8655,2.8641,2.8617,2.8792,2.8792,2.8792,2.8305,2.8313,2.8407,2.8446,2.8513,2.8571,2.868,2.876,2.8803,2.8801,2.8734,2.8725,2.8669,2.8649,2.8648,2.8626,2.8582,0,0]}]]